Flag for Poland Weather past 2 weeks in Kalisz, Poland

Now
35 °F

Fog.


Feels Like: 35 °F
Forecast: 38 / 47 °F
Wind: 1 mph from South

Location: Kalisz

Current Time: Mar 29, 2015 at 3:10:52 AM

Latest Report: Mar 29, 2015 at 1:00 AM


Visibility: 1 mi

Pressure: 29.96 "Hg

Humidity: 98%

Dew point: 34 °F

Location of KaliszLocation

Historic Weather in Kalisz — Graph

°F

Kalisz temperature yesterday

Maximum temperature yesterday: 46 °F (at 12:00 PM)
Minimum temperature yesterday: 38 °F (at 11:00 PM)
Average temperature yesterday: 42 °F

Past Weeks' High & Low Weather Summary

 TemperatureHumidityPressure
High64 °F (Mar 25, 3:00 PM)98% (Mar 14, 6:00 AM)30.63 "Hg (Mar 14, 6:00 AM)
Low28 °F (Mar 23, 2:00 AM)25% (Mar 18, 3:00 PM)29.72 "Hg (Mar 26, 3:00 PM)
Average43 °F65%30.19 "Hg
* Reported Midnight between Mar 13 and Mar 14 — Midnight between Mar 28 and Mar 29, Kalisz, Weather by CustomWeather, © 2015

Note: Actual official high and low records may vary slightly from our data, if they occured in-between our weather recording intervals... More about our weather records

Advertising

Kalisz weather history for previous 24 hours

 ConditionsComfort  
Time TempWeatherWind HumidityBarometerVisibility
12:00 AM
Sun, Mar 29
36 °FFog.2 mph95%29.98 "Hg1 mi
11:00 PM
Sat, Mar 28
38 °FFog.1 mph93%29.99 "Hg1 mi
9:00 PM40 °FFog.1 mph90%30.03 "Hg2 mi
8:00 PM41 °FFog.1 mph87%30.04 "Hg2 mi
7:00 PM42 °FFog.1 mph83%30.04 "Hg4 mi
6:00 PM43 °FFog.1 mph83%30.04 "Hg5 mi
5:00 PM44 °FOvercast.3 mph76%30.05 "Hg7 mi
4:00 PM46 °FOvercast.3 mph70%30.04 "Hg9 mi
3:00 PM46 °FOvercast.5 mph68%30.05 "Hg10 mi
2:00 PM45 °FOvercast.3 mph77%30.06 "Hg8 mi
1:00 PM44 °FOvercast.5 mph81%30.08 "Hg7 mi
12:00 PM46 °FOvercast.6 mph73%30.07 "Hg10 mi
11:00 AM45 °FOvercast.7 mph77%30.08 "Hg8 mi
10:00 AM44 °FFog.7 mph84%30.09 "Hg6 mi
9:00 AM42 °FFog.5 mph89%30.09 "Hg6 mi
8:00 AM42 °FFog.3 mph93%30.09 "Hg4 mi
7:00 AM41 °FFog.5 mph93%30.09 "Hg3 mi
6:00 AM40 °FFog.5 mph93%30.07 "Hg4 mi
5:00 AM38 °FFog.3 mph92%30.07 "Hg4 mi
4:00 AM39 °FFog.5 mph90%30.06 "Hg5 mi
3:00 AM39 °FFog.5 mph89%30.05 "Hg5 mi
Weather by CustomWeather, © 2015

See weather overviewHow to use our weather pages